When you browse on this site, cookies collect data to enhance your experience and personalize the content and advertising you see.
Visit our Privacy Policy to learn more. By continuing to use the site, you agree to this use of cookies and data.
  • In Switzerland
  • List of Countries
  • For 7 days
  • Water Temperature
  • Satellite Maps
  • Weather Map
  • Weather Widgets
  • user-avatar
    Login

    Hourly Weather Lausanne

    Today, 22 July, Monday

    Time Temperature Precipitation Wind Pressure Humidity
    00:00 +21°C° 0 mm 1 mps 728 mmHg 85%
    01:00 +21°C° 0 mm 1 mps 728 mmHg 85%
    02:00 +21°C° 0 mm 1 mps 728 mmHg 86%
    03:00 +21°C° 0 mm 1 mps 728 mmHg 86%
    04:00 +22°C° 0 mm 1 mps 728 mmHg 83%
    05:00 +21°C° 0 mm 0 mps 728 mmHg 81%
    06:00 +23°C° 0 mm 0 mps 728 mmHg 74%
    07:00 +24°C° 0 mm 0 mps 728 mmHg 69%
    08:00 +28°C° 0 mm 1 mps 728 mmHg 64%
    09:00 +29°C° 0 mm 1 mps 728 mmHg 60%
    10:00 +30°C° 0 mm 1 mps 728 mmHg 57%
    11:00 +31°C° 0 mm 1 mps 728 mmHg 54%
    12:00 +32°C° 0 mm 1 mps 728 mmHg 50%
    13:00 +32°C° 0 mm 1 mps 728 mmHg 50%
    14:00 +32°C° 0 mm 1 mps 727 mmHg 50%
    15:00 +32°C° 0 mm 1 mps 727 mmHg 50%
    16:00 +31°C° 0 mm 1 mps 727 mmHg 57%
    17:00 +29°C° 0 mm 1 mps 727 mmHg 64%
    18:00 +28°C° 0 mm 1 mps 727 mmHg 71%
    19:00 +27°C° 0 mm 1 mps 727 mmHg 75%
    20:00 +25°C° 0 mm 1 mps 727 mmHg 78%
    21:00 +24°C° 0 mm 2 mps 727 mmHg 82%
    22:00 +23°C° 0 mm 1 mps 727 mmHg 83%
    23:00 +23°C° 0 mm 1 mps 727 mmHg 84%

    Tomorrow, 23 July, Tuesday

    Time Temperature Precipitation Wind Pressure Humidity
    00:00 +23°C° 0 mm 1 mps 727 mmHg 85%
    01:00 +22°C° 0 mm 1 mps 727 mmHg 85%
    02:00 +22°C° 0 mm 1 mps 726 mmHg 85%
    03:00 +21°C° 0 mm 1 mps 726 mmHg 85%
    04:00 +22°C° 0 mm 1 mps 726 mmHg 82%
    05:00 +23°C° 0 mm 1 mps 726 mmHg 80%
    06:00 +22°C° 0 mm 0 mps 726 mmHg 78%
    07:00 +26°C° 0 mm 1 mps 726 mmHg 71%
    08:00 +28°C° 0 mm 1 mps 726 mmHg 65%
    09:00 +30°C° 0 mm 1 mps 726 mmHg 59%
    10:00 +31°C° 0 mm 1 mps 726 mmHg 56%
    11:00 +32°C° 0 mm 1 mps 726 mmHg 52%
    12:00 +33°C° 0 mm 1 mps 725 mmHg 49%
    13:00 +33°C° 0 mm 1 mps 725 mmHg 48%
    14:00 +33°C° 0 mm 1 mps 725 mmHg 47%
    15:00 +33°C° 0 mm 1 mps 725 mmHg 46%
    16:00 +30°C° 0 mm 0 mps 724 mmHg 54%
    17:00 +29°C° 0 mm 0 mps 724 mmHg 62%
    18:00 +27°C° 0 mm 0 mps 724 mmHg 69%
    19:00 +26°C° 0 mm 0 mps 724 mmHg 71%
    20:00 +26°C° 0 mm 1 mps 724 mmHg 72%
    21:00 +25°C° 0 mm 1 mps 724 mmHg 73%
    22:00 +25°C° 0 mm 1 mps 724 mmHg 74%
    23:00 +24°C° 0 mm 1 mps 724 mmHg 75%

    Day after tomorrow, 24 July, Wednesday

    Time Temperature Precipitation Wind Pressure Humidity
    00:00 +24°C° 0 mm 1 mps 724 mmHg 76%
    01:00 +23°C° 0 mm 1 mps 724 mmHg 76%
    02:00 +23°C° 0 mm 1 mps 724 mmHg 76%
    03:00 +22°C° 0 mm 1 mps 723 mmHg 75%
    04:00 +24°C° 0 mm 1 mps 723 mmHg 74%
    05:00 +25°C° 0 mm 1 mps 724 mmHg 72%
    06:00 +26°C° 0 mm 1 mps 724 mmHg 71%
    07:00 +28°C° 0 mm 1 mps 724 mmHg 64%
    08:00 +30°C° 0 mm 1 mps 724 mmHg 57%
    09:00 +32°C° 0 mm 1 mps 724 mmHg 51%
    10:00 +33°C° 0 mm 1 mps 724 mmHg 47%
    11:00 +34°C° 0 mm 1 mps 724 mmHg 44%
    12:00 +35°C° 0 mm 1 mps 723 mmHg 41%
    13:00 +35°C° 0 mm 1 mps 723 mmHg 40%
    14:00 +35°C° 0 mm 1 mps 723 mmHg 38%
    15:00 +35°C° 0 mm 1 mps 723 mmHg 37%
    16:00 +33°C° 0 mm 1 mps 723 mmHg 45%
    17:00 +32°C° 0 mm 1 mps 723 mmHg 53%
    18:00 +30°C° 0 mm 1 mps 723 mmHg 60%
    19:00 +29°C° 0 mm 1 mps 723 mmHg 59%
    20:00 +27°C° 0 mm 1 mps 723 mmHg 58%
    21:00 +26°C° 0 mm 1 mps 723 mmHg 57%
    22:00 +25°C° 0 mm 1 mps 723 mmHg 58%
    23:00 +25°C° 0 mm 1 mps 723 mmHg 59%

    25 July, Thursday

    Time Temperature Precipitation Wind Pressure Humidity
    00:00 +24°C° 0 mm 1 mps 723 mmHg 59%
    01:00 +24°C° 0 mm 1 mps 723 mmHg 62%
    02:00 +24°C° 0 mm 1 mps 723 mmHg 65%
    03:00 +23°C° 0 mm 1 mps 723 mmHg 67%
    04:00 +24°C° 0 mm 1 mps 723 mmHg 68%
    05:00 +23°C° 0 mm 0 mps 723 mmHg 68%
    06:00 +24°C° 0 mm 0 mps 723 mmHg 69%
    07:00 +26°C° 0 mm 0 mps 723 mmHg 63%
    08:00 +29°C° 0 mm 1 mps 723 mmHg 57%
    09:00 +31°C° 0 mm 1 mps 723 mmHg 51%
    10:00 +32°C° 0 mm 1 mps 723 mmHg 49%
    11:00 +33°C° 0 mm 1 mps 723 mmHg 46%
    12:00 +34°C° 0 mm 1 mps 723 mmHg 44%
    13:00 +34°C° 0 mm 1 mps 723 mmHg 45%
    14:00 +34°C° 0 mm 1 mps 722 mmHg 46%
    15:00 +34°C° 0 mm 1 mps 722 mmHg 48%
    16:00 +32°C° 0.2 mm 1 mps 722 mmHg 55%
    17:00 +29°C° 0.2 mm 0 mps 722 mmHg 63%
    18:00 +27°C° 0.2 mm 0 mps 722 mmHg 71%
    19:00 +28°C° 0.2 mm 1 mps 722 mmHg 72%
    20:00 +26°C° 0.2 mm 1 mps 722 mmHg 74%
    21:00 +25°C° 0.2 mm 1 mps 722 mmHg 75%
    22:00 +24°C° 0.5 mm 1 mps 722 mmHg 78%
    23:00 +24°C° 0.5 mm 1 mps 722 mmHg 81%

    26 July, Friday

    Time Temperature Precipitation Wind Pressure Humidity
    00:00 +23°C° 0.5 mm 1 mps 722 mmHg 84%
    01:00 +23°C° 0.7 mm 1 mps 722 mmHg 85%
    02:00 +22°C° 0.7 mm 1 mps 721 mmHg 86%
    03:00 +22°C° 0.7 mm 1 mps 721 mmHg 87%
    04:00 +23°C° 0.2 mm 1 mps 721 mmHg 85%
    05:00 +24°C° 0.2 mm 1 mps 721 mmHg 84%
    06:00 +25°C° 0.2 mm 1 mps 721 mmHg 83%
    07:00 +25°C° 0 mm 0 mps 721 mmHg 74%
    08:00 +27°C° 0 mm 0 mps 721 mmHg 65%
    09:00 +29°C° 0 mm 0 mps 721 mmHg 57%
    10:00 +30°C° 0 mm 0 mps 721 mmHg 53%
    11:00 +33°C° 0 mm 1 mps 721 mmHg 49%
    12:00 +33°C° 0 mm 1 mps 720 mmHg 46%
    13:00 +33°C° 0.6 mm 1 mps 720 mmHg 47%
    14:00 +33°C° 0.6 mm 1 mps 720 mmHg 47%
    15:00 +33°C° 0.6 mm 1 mps 719 mmHg 48%
    16:00 +31°C° 0.2 mm 1 mps 719 mmHg 55%
    17:00 +30°C° 0.2 mm 1 mps 719 mmHg 62%
    18:00 +29°C° 0.2 mm 1 mps 719 mmHg 69%
    19:00 +27°C° 0.2 mm 1 mps 719 mmHg 71%
    20:00 +26°C° 0.2 mm 1 mps 719 mmHg 73%
    21:00 +24°C° 0.2 mm 1 mps 719 mmHg 76%
    22:00 +24°C° 0.6 mm 1 mps 719 mmHg 79%
    23:00 +23°C° 0.6 mm 1 mps 719 mmHg 82%

    27 July, Saturday

    Time Temperature Precipitation Wind Pressure Humidity
    00:00 +22°C° 0.6 mm 1 mps 719 mmHg 85%
    01:00 +22°C° 0.1 mm 1 mps 719 mmHg 85%
    02:00 +22°C° 0.1 mm 1 mps 719 mmHg 85%
    03:00 +22°C° 0.1 mm 1 mps 719 mmHg 86%
    04:00 +22°C° 0.4 mm 1 mps 719 mmHg 86%
    05:00 +23°C° 0.4 mm 1 mps 719 mmHg 86%
    06:00 +22°C° 0.4 mm 0 mps 719 mmHg 86%
    07:00 +25°C° 0.2 mm 1 mps 719 mmHg 81%
    08:00 +27°C° 0.2 mm 1 mps 720 mmHg 76%
    09:00 +29°C° 0.2 mm 1 mps 720 mmHg 71%
    10:00 +29°C° 0.5 mm 1 mps 719 mmHg 68%
    11:00 +30°C° 0.5 mm 1 mps 719 mmHg 65%
    12:00 +31°C° 0.5 mm 1 mps 719 mmHg 61%
    13:00 +31°C° 0.4 mm 1 mps 719 mmHg 61%
    14:00 +31°C° 0.4 mm 1 mps 719 mmHg 61%
    15:00 +31°C° 0.4 mm 1 mps 719 mmHg 61%
    16:00 +29°C° 0.3 mm 1 mps 719 mmHg 68%
    17:00 +28°C° 0.3 mm 1 mps 719 mmHg 74%
    18:00 +27°C° 0.3 mm 1 mps 719 mmHg 81%
    19:00 +26°C° 0.1 mm 1 mps 719 mmHg 82%
    20:00 +24°C° 0.1 mm 1 mps 719 mmHg 83%
    21:00 +23°C° 0.1 mm 1 mps 719 mmHg 83%
    22:00 +22°C° 0.1 mm 1 mps 720 mmHg 84%
    23:00 +22°C° 0.1 mm 1 mps 720 mmHg 84%
    Show more